FW4218 Weather Reports


time (UTC)temp
C
wind
direction
speed
KPH
gust
KPH
rain 1hr
cm
rain 24hr
cm
rain mn
cm
humidity
%
barometer
mb
20260510204145 20 101 20.9 35.4 0.00 0.00 0.00 36 1021.8
20260510203243 20 103 25.7 38.6 0.00 0.00 0.00 37 1021.7
20260510202133 20 102 24.1 35.4 0.00 0.00 0.00 36 1021.7
20260510201234 20 102 24.1 37.0 0.00 0.00 0.00 36 1021.6
20260510200333 20 99 27.4 41.8 0.00 0.00 0.00 36 1021.6
20260510195433 20 103 25.7 40.2 0.00 0.00 0.00 35 1021.4
20260510194533 20 105 25.7 40.2 0.00 0.00 0.00 35 1021.3
20260510193847 20 104 27.4 43.5 0.00 0.00 0.00 34 1021.4
20260510192733 22 102 24.1 41.8 0.00 0.00 0.00 32 1021.2
20260510191833 22 102 25.7 40.2 0.00 0.00 0.00 30 1021.0
20260510190933 22 101 29.0 38.6 0.00 0.00 0.00 30 1021.1
20260510190033 22 105 24.1 40.2 0.00 0.00 0.00 31 1021.2
20260510185133 22 106 24.1 43.5 0.00 0.00 0.00 31 1021.3
20260510184446 22 112 24.1 37.0 0.00 0.00 0.00 31 1021.3
20260510183543 22 106 24.1 41.8 0.00 0.00 0.00 31 1021.4
20260510182433 21 115 24.1 41.8 0.00 0.00 0.00 32 1021.4
20260510181533 21 118 27.4 43.5 0.00 0.00 0.00 32 1021.3
20260510180845 21 115 27.4 40.2 0.00 0.00 0.00 32 1021.2
20260510175733 21 120 25.7 38.6 0.00 0.00 0.00 32 1021.2
20260510175045 21 109 25.7 38.6 0.00 0.00 0.00 32 1021.2
20260510173933 21 113 25.7 40.2 0.00 0.00 0.00 32 1021.1
20260510173033 21 111 24.1 38.6 0.00 0.00 0.00 31 1021.1
20260510172134 21 109 20.9 32.2 0.00 0.00 0.00 33 1021.1
20260510171234 20 116 22.5 33.8 0.00 0.00 0.00 34 1021.1
20260510170333 20 100 22.5 37.0 0.00 0.00 0.00 35 1021.2
20260510165434 20 103 24.1 38.6 0.00 0.00 0.00 35 1021.1
20260510164533 21 110 24.1 40.2 0.00 0.00 0.00 35 1021.1
20260510163844 20 106 25.7 40.2 0.00 0.00 0.00 35 1020.9
20260510162734 20 97 32.2 49.9 0.00 0.00 0.00 36 1020.9
20260510161833 20 110 22.5 43.5 0.00 0.00 0.00 35 1020.7
20260510161146 21 143 12.9 33.8 0.00 0.00 0.00 28 1020.6
20260510160034 20 109 12.9 25.7 0.00 0.00 0.00 29 1020.6
20260510155134 20 112 11.3 20.9 0.00 0.00 0.00 29 1020.6
20260510154233 20 109 11.3 17.7 0.00 0.00 0.00 29 1020.6
20260510153545 20 133 8.0 17.7 0.00 0.00 0.00 30 1020.6
20260510152648 20 135 6.4 14.5 0.00 0.00 0.00 31 1020.5
20260510151533 19 140 11.3 17.7 0.00 0.00 0.00 32 1020.3
20260510150633 18 134 12.9 20.9 0.00 0.00 0.00 33 1020.3
20260510145945 18 128 11.3 17.7 0.00 0.00 0.00 34 1020.3
20260510144833 18 116 12.9 20.9 0.00 0.00 0.00 34 1020.3
20260510143933 18 125 12.9 19.3 0.00 0.00 0.00 35 1020.2
20260510143034 17 131 9.7 19.3 0.00 0.00 0.00 36 1020.1
20260510142344 17 148 8.0 14.5 0.00 0.00 0.00 37 1020.1
20260510141233 16 142 9.7 14.5 0.00 0.00 0.00 39 1020.0
20260510140334 16 129 14.5 22.5 0.00 0.00 0.00 39 1019.8
20260510135434 16 126 17.7 27.4 0.00 0.00 0.00 39 1019.7
20260510134743 16 128 17.7 27.4 0.00 0.00 0.00 39 1019.6
20260510133633 16 126 19.3 33.8 0.00 0.00 0.00 38 1019.6
20260510132943 16 129 19.3 32.2 0.00 0.00 0.00 38 1019.5
20260510131833 15 130 20.9 30.6 0.00 0.00 0.00 39 1019.3
20260510130933 15 127 20.9 30.6 0.00 0.00 0.00 40 1019.2
20260510130033 15 115 24.1 38.6 0.00 0.00 0.00 39 1019.2
20260510125133 16 106 20.9 37.0 0.00 0.00 0.00 36 1019.2
20260510124233 16 109 17.7 27.4 0.00 0.00 0.00 34 1019.4
20260510123333 16 100 16.1 25.7 0.00 0.00 0.00 32 1019.6
20260510122433 17 88 16.1 27.4 0.00 0.00 0.00 31 1019.9
20260510121533 17 104 17.7 29.0 0.00 0.00 0.00 32 1019.6
20260510120633 17 160 9.7 19.3 0.00 0.00 0.00 31 1019.7
20260510115946 17 50 20.9 35.4 0.00 0.00 0.00 31 1019.8
20260510114834 17 350 25.7 41.8 0.00 0.00 0.00 31 1019.7
20260510113933 16 336 16.1 32.2 0.00 0.00 0.00 30 1019.4
20260510113033 15 314 11.3 17.7 0.00 0.00 0.00 29 1019.1
20260510112133 16 340 8.0 12.9 0.00 0.00 0.00 30 1018.8
20260510111233 16 346 8.0 12.9 0.00 0.00 0.00 28 1018.5
20260510110545 17 355 6.4 11.3 0.00 0.00 0.00 27 1018.4
20260510105433 16 22 11.3 19.3 0.00 0.00 0.00 27 1018.0
20260510104533 16 38 14.5 20.9 0.00 0.00 0.00 26 1017.9
20260510103633 17 347 8.0 17.7 0.00 0.00 0.00 26 1017.5
20260510102733 18 343 6.4 9.7 0.00 0.00 0.00 23 1017.4
20260510101833 18 326 12.9 24.1 0.00 0.00 0.00 24 1017.3
20260510101144 18 323 16.1 27.4 0.00 0.00 0.00 25 1017.3
20260510100247 17 346 19.3 30.6 0.00 0.00 0.00 24 1017.5
20260510095133 16 340 17.7 22.5 0.00 0.00 0.00 26 1017.4
20260510094233 16 347 12.9 17.7 0.00 0.00 0.00 27 1017.3
20260510093333 15 341 14.5 20.9 0.00 0.00 0.00 29 1017.1
20260510092646 14 338 12.9 17.7 0.00 0.00 0.00 29 1017.0
20260510091533 14 333 12.9 14.5 0.00 0.00 0.00 29 1016.7
20260510090633 14 330 9.7 12.9 0.00 0.00 0.00 29 1016.5
20260510084833 14 333 11.3 14.5 0.00 0.00 0.00 28 1016.2
20260510083933 13 330 12.9 17.7 0.00 0.00 0.00 28 1016.0
20260510083033 13 331 14.5 17.7 0.00 0.00 0.00 28 1015.9
20260510082133 13 349 11.3 16.1 0.00 0.00 0.00 29 1015.7
20260510081233 13 352 11.3 14.5 0.00 0.00 0.00 28 1015.7
20260510080333 13 342 14.5 17.7 0.00 0.00 0.00 29 1015.8
20260510075433 13 344 14.5 19.3 0.00 0.00 0.00 29 1015.9
20260510074533 12 342 14.5 19.3 0.00 0.00 0.00 29 1016.0
20260510073633 12 331 14.5 17.7 0.00 0.00 0.00 28 1015.9
20260510072733 12 353 12.9 16.1 0.00 0.00 0.00 28 1015.9
20260510071833 11 358 9.7 14.5 0.00 0.00 0.00 29 1015.9
20260510070933 11 8 8.0 9.7 0.00 0.00 0.00 29 1015.7
20260510070033 11 347 9.7 11.3 0.00 0.00 0.00 29 1015.8
20260510065133 11 318 9.7 11.3 0.00 0.00 0.00 28 1015.6
20260510064233 11 310 9.7 11.3 0.00 0.00 0.00 28 1015.5
20260510063333 12 289 9.7 12.9 0.00 0.00 0.00 27 1015.5
20260510062433 12 265 9.7 14.5 0.00 0.00 0.00 27 1015.4
20260510061533 13 248 9.7 12.9 0.00 0.00 0.00 28 1015.2
20260510060633 12 247 11.3 16.1 0.00 0.00 0.00 29 1015.2
20260510055733 11 240 9.7 12.9 0.00 0.00 0.00 30 1015.2
20260510054833 11 225 9.7 12.9 0.00 0.00 0.00 32 1015.0
20260510054145 10 220 9.7 12.9 0.00 0.00 0.00 31 1015.0
20260510053033 12 231 9.7 14.5 0.00 0.00 0.00 30 1014.9
20260510052133 13 228 8.0 12.9 0.00 0.00 0.00 27 1014.9
20260510051233 12 263 4.8 11.3 0.00 0.00 0.00 28 1014.8
20260510050333 12 290 11.3 12.9 0.00 0.00 0.00 26 1014.6
20260510045433 12 297 11.3 14.5 0.00 0.00 0.00 26 1014.6
20260510044533 13 295 11.3 14.5 0.00 0.00 0.00 26 1014.6
20260510043633 12 299 11.3 14.5 0.00 0.00 0.00 26 1014.6
20260510042944 13 303 11.3 12.9 0.00 0.00 0.00 24 1014.5
20260510041833 15 315 11.3 14.5 0.00 0.00 0.00 22 1014.4
20260510040933 16 329 12.9 17.7 0.00 0.00 0.00 22 1014.4
20260510040033 16 331 12.9 17.7 0.00 0.00 0.00 22 1014.4
20260510035133 15 333 12.9 17.7 0.00 0.00 0.00 23 1014.2
20260510034233 15 316 11.3 16.1 0.00 0.00 0.00 21 1014.2
20260510033333 16 317 12.9 17.7 0.00 0.00 0.00 20 1014.2
20260510032433 17 319 11.3 16.1 0.00 0.00 0.00 19 1013.9
20260510031533 18 325 14.5 17.7 0.00 0.00 0.00 18 1013.9
20260510030633 18 309 14.5 17.7 0.00 0.00 0.00 17 1013.9
20260510025733 18 314 11.3 17.7 0.00 0.00 0.00 18 1013.7
20260510024834 20 325 9.7 12.9 0.00 0.00 0.00 17 1013.5
20260510023933 20 336 11.3 12.9 0.00 0.00 0.00 17 1013.4
20260510023033 21 331 8.0 12.9 0.00 0.00 0.00 16 1013.3
20260510022133 22 326 8.0 14.5 0.00 0.00 0.00 15 1013.2
20260510021444 23 295 12.9 22.5 0.00 0.00 0.00 14 1013.1
20260510020333 23 254 9.7 14.5 0.00 0.00 0.00 14 1013.1
20260510015433 24 225 11.3 29.0 0.00 0.00 0.00 13 1013.0
20260510014533 23 258 16.1 35.4 0.00 0.00 0.00 13 1013.0
20260510013632 24 262 11.3 19.3 0.00 0.00 0.00 13 1013.1
20260510012733 25 266 19.3 51.5 0.00 0.00 0.00 12 1013.0
20260510011832 24 233 12.9 33.8 0.00 0.00 0.00 13 1012.8
20260510010933 24 252 8.0 12.9 0.00 0.00 0.00 14 1013.0
20260510010243 25 264 6.4 22.5 0.00 0.00 0.00 13 1012.8
20260510005345 25 307 14.5 37.0 0.00 0.00 0.00 12 1012.8
20260510004233 25 301 17.7 37.0 0.00 0.00 0.00 12 1012.7
20260510003333 25 313 17.7 29.0 0.00 0.00 0.00 11 1012.6
20260510002433 26 319 19.3 25.7 0.00 0.00 0.00 10 1012.7
20260510001533 26 322 17.7 27.4 0.00 0.00 0.00 10 1012.6
20260510000842 26 321 16.1 25.7 0.00 0.00 0.00 11 1012.6
20260509235733 26 327 20.9 29.0 0.00 0.00 0.00 10 1012.5
20260509234833 26 324 19.3 32.2 0.00 0.00 0.00 11 1012.5
20260509233933 26 304 11.3 17.7 0.00 0.00 0.00 11 1012.6
20260509233033 26 325 17.7 27.4 0.00 0.00 0.00 11 1012.7
20260509232133 26 326 19.3 29.0 0.00 0.00 0.00 11 1012.7
20260509231233 27 323 17.7 32.2 0.00 0.00 0.00 11 1012.7
20260509230543 27 330 19.3 33.8 0.00 0.00 0.00 11 1012.7
20260509225433 26 306 16.1 27.4 0.00 0.00 0.00 11 1012.8
20260509224533 27 318 19.3 29.0 0.00 0.00 0.00 11 1012.9
20260509223846 27 311 20.9 29.0 0.00 0.00 0.00 11 1013.0
20260509222733 27 308 27.4 41.8 0.00 0.00 0.00 11 1013.0
20260509222045 27 306 29.0 45.1 0.00 0.00 0.00 11 1013.2
20260509220933 28 326 17.7 35.4 0.00 0.00 0.00 11 1013.4
20260509220033 27 299 17.7 35.4 0.00 0.00 0.00 11 1013.3
20260509215133 27 319 17.7 30.6 0.00 0.00 0.00 11 1013.5
20260509214233 27 333 16.1 25.7 0.00 0.00 0.00 12 1013.6
20260509213333 27 319 24.1 45.1 0.00 0.00 0.00 11 1013.8
20260509212433 27 306 22.5 41.8 0.00 0.00 0.00 11 1014.0
20260509211533 28 298 24.1 41.8 0.00 0.00 0.00 11 1014.0
20260509210633 27 310 20.9 45.1 0.00 0.00 0.00 12 1014.1
20260509205733 27 325 20.9 40.2 0.00 0.00 0.00 12 1014.3
20260509204833 26 305 29.0 45.1 0.00 0.00 0.00 11 1014.7